(232147) = 2002 CC148 = 2005 WG99

Discovered at Socorro on 2002-02-10 by LINEAR.

Orbit

Orbit type: Main Belt

Note: WebGL enabled browser required.

epoch2023-09-13.0
epoch JD2460200.5
perihelion date2022-02-26.09345
perihelion JD2459636.59345
argument of perihelion (°)132.35308
ascending node (°)128.71765
inclination (°)1.25437
eccentricity0.0179894
perihelion distance (AU)2.7254675
Tisserand w.r.t. Jupiter3.3
ΔV w.r.t. Earth (km/sec)10.3
semimajor axis (AU)2.7753953
mean anomaly (°)120.20533
mean daily motion (°/day)0.21316530
aphelion distance (AU)2.825
period (years)4.62
P-vector [x]-0.15507690
P-vector [y]-0.91269630
P-vector [z]-0.37806959
Q-vector [x]0.98775474
Q-vector [y]-0.13663329
Q-vector [z]-0.07531217
absolute magnitude16.41
phase slope0.15
uncertainty0
referenceMPEC 2024-A141
observations used324
oppositions16
arc length (days)8452
first opposition used2000
last opposition used2024
residual rms (arc-secs)0.64
perturbers coarse indicatorM-v
perturbers precise indicator003Ek
first observation date used2000-11-20.0
last observation date used2024-01-11.0
computer nameMPCLINUX
JD of orbit computation2456966.918669
perihelion JD uncertainty (days)7.7778E-04
argument of perihelion uncertainty (°)3.0081E-04
ascending node uncertainty (°)2.5029E-04
inclination uncertainty (°)3.3864E-06
eccentricity uncertainty 5.8759E-08
perihelion distance uncertainty (AU)1.5334E-07
Minimum Orbit Intersection Distances (in AU)
for orbit epoch: 2460200.5, reference: E2024-AE1
Mercury2.26051
Venus1.99918
Earth1.70926
Mars1.11419
Jupiter2.15244
Saturn6.22752
Uranus15.6648
Neptune27.0307

Observations

331 total observations over interval: 2000 11 20.22460 – 2024 01 11.108786
These data are available for download (format description).

Date (UT) J2000 RA J2000 Dec Magn Location Ref
2000 11 20.22460 02 20 01.50 +11 59 18.2 20.5 V 691 – Steward Observatory, Kitt Peak-Spacewatch MPS 159868
2000 11 20.24617 02 20 00.55 +11 59 14.0 20.3 V 691 – Steward Observatory, Kitt Peak-Spacewatch MPS 159868
2000 11 20.26784 02 19 59.55 +11 59 09.7 20.7 V 691 – Steward Observatory, Kitt Peak-Spacewatch MPS 159868
2002 01 21.45680 09 22 38.24 +15 29 33.4 21.0 V 691 – Steward Observatory, Kitt Peak-Spacewatch MPS 54728
2002 01 21.47946 09 22 37.15 +15 29 38.9 20.7 V 691 – Steward Observatory, Kitt Peak-Spacewatch MPS 54728
2002 01 21.50195 09 22 36.05 +15 29 44.5 20.7 V 691 – Steward Observatory, Kitt Peak-Spacewatch MPS 54728
2002 02 10.23383 09 05 24.76 +16 55 46.5 21.6 V 691 – Steward Observatory, Kitt Peak-Spacewatch MPS 54728
2002 02 10.23816 09 05 24.51 +16 55 49.1 19.5   704 – Lincoln Laboratory ETS, New Mexico MPS 50328
2002 02 10.25230 09 05 23.73 +16 55 52.9 20.0   704 – Lincoln Laboratory ETS, New Mexico MPS 50328
2002 02 10.25552 09 05 23.56 +16 55 52.5 21.3 V 691 – Steward Observatory, Kitt Peak-Spacewatch MPS 54728
2002 02 10.26935 09 05 22.87 +16 55 57.4 19.9   704 – Lincoln Laboratory ETS, New Mexico MPS 50328
2002 02 10.27821 09 05 22.35 +16 55 58.5 20.9 V 691 – Steward Observatory, Kitt Peak-Spacewatch MPS 54728
2002 02 10.28457 09 05 21.95 +16 56 01.2 20.0   704 – Lincoln Laboratory ETS, New Mexico MPS 50328
2002 02 10.29964 09 05 21.17 +16 56 04.5 20.3   704 – Lincoln Laboratory ETS, New Mexico MPS 50328
2002 02 11.26612 09 04 29.91 +17 00 11.7 20.4   704 – Lincoln Laboratory ETS, New Mexico MPS 50328
2002 02 11.28024 09 04 29.16 +17 00 14.5 20.7   704 – Lincoln Laboratory ETS, New Mexico MPS 50328
2002 02 11.29436 09 04 28.45 +17 00 16.7 21.0   704 – Lincoln Laboratory ETS, New Mexico MPS 50328
2002 02 12.25415 09 03 37.72 +17 04 15.8 20.1   704 – Lincoln Laboratory ETS, New Mexico MPS 54728
2002 02 12.26838 09 03 36.99 +17 04 20.2 20.2   704 – Lincoln Laboratory ETS, New Mexico MPS 54728
2002 02 12.28284 09 03 36.20 +17 04 23.8 20.3   704 – Lincoln Laboratory ETS, New Mexico MPS 54728
2002 02 12.29706 09 03 35.49 +17 04 27.3 20.6   704 – Lincoln Laboratory ETS, New Mexico MPS 54728
2005 11 28.35124 05 13 25.50 +21 27 36.3 19.5 V G96 – Mt. Lemmon Survey MPS 153986
2005 11 28.35785 05 13 25.10 +21 27 35.7 20.0 V G96 – Mt. Lemmon Survey MPS 153986
2005 11 28.36447 05 13 24.70 +21 27 35.4 19.7 V G96 – Mt. Lemmon Survey MPS 153986
2005 11 28.37125 05 13 24.31 +21 27 35.3 19.7 V G96 – Mt. Lemmon Survey MPS 153986
2005 11 30.20526 05 11 42.60 +21 25 50.3 20.5 V 691 – Steward Observatory, Kitt Peak-Spacewatch MPS 153986
2005 11 30.22255 05 11 41.59 +21 25 49.3 20.3 V 691 – Steward Observatory, Kitt Peak-Spacewatch MPS 153986
2005 11 30.23990 05 11 40.60 +21 25 48.4 20.3 V 691 – Steward Observatory, Kitt Peak-Spacewatch MPS 153986
2005 12 04.32639 05 07 46.66 +21 21 42.6 19.8 V G96 – Mt. Lemmon Survey MPS 153986
2005 12 04.33477 05 07 46.16 +21 21 42.2 19.7 V G96 – Mt. Lemmon Survey MPS 153986
2005 12 04.34314 05 07 45.69 +21 21 41.4 19.7 V G96 – Mt. Lemmon Survey MPS 153986
2005 12 04.35147 05 07 45.15 +21 21 41.0 19.6 V G96 – Mt. Lemmon Survey MPS 153986
2005 12 08.15697 05 04 03.35 +21 17 41.3 20.3 V 691 – Steward Observatory, Kitt Peak-Spacewatch MPS 153986
2005 12 08.18225 05 04 01.82 +21 17 40.0 20.4 V 691 – Steward Observatory, Kitt Peak-Spacewatch MPS 153986
2005 12 08.20750 05 04 00.32 +21 17 38.5 20.3 V 691 – Steward Observatory, Kitt Peak-Spacewatch MPS 153986
2005 12 24.27044 04 49 02.97 +21 00 42.8 21.0 g 568 – Maunakea MPS 312996
2005 12 24.36845 04 48 57.85 +21 00 37.5 21.0 g 568 – Maunakea MPS 312996
2005 12 24.40264 04 48 56.06 +21 00 35.5 21.0 g 568 – Maunakea MPS 312996
2005 12 25.40633 04 48 06.02 +20 59 38.5 21.1 g 568 – Maunakea MPS 312996
2007 02 17.35848 11 51 38.47 +02 10 01.9   691 – Steward Observatory, Kitt Peak-Spacewatch MPS 200305
2007 02 17.37662 11 51 37.82 +02 10 06.8   691 – Steward Observatory, Kitt Peak-Spacewatch MPS 200305
2007 02 17.39477 11 51 37.20 +02 10 11.0   691 – Steward Observatory, Kitt Peak-Spacewatch MPS 200305
2007 02 21.37846 11 49 18.70 +02 27 38.2 20.7 V 691 – Steward Observatory, Kitt Peak-Spacewatch MPS 200305
2007 02 21.40007 11 49 17.86 +02 27 44.0 20.6 V 691 – Steward Observatory, Kitt Peak-Spacewatch MPS 200305
2007 02 21.42168 11 49 17.01 +02 27 50.2 20.8 V 691 – Steward Observatory, Kitt Peak-Spacewatch MPS 200305
2007 02 25.39400 11 46 41.83 +02 46 57.0 20.6 V 691 – Steward Observatory, Kitt Peak-Spacewatch MPS 201458
2007 02 25.41169 11 46 41.08 +02 47 02.4 20.5 V 691 – Steward Observatory, Kitt Peak-Spacewatch MPS 201458
2007 02 25.42939 11 46 40.32 +02 47 07.5 20.4 V 691 – Steward Observatory, Kitt Peak-Spacewatch MPS 201458
2007 03 17.32144 11 31 09.69 +04 36 07.5 19.7   704 – Lincoln Laboratory ETS, New Mexico MPS 204520
2007 03 17.33227 11 31 09.21 +04 36 08.6 19.9   704 – Lincoln Laboratory ETS, New Mexico MPS 204520
2007 03 17.34316 11 31 08.63 +04 36 13.6 19.9   704 – Lincoln Laboratory ETS, New Mexico MPS 204520
2007 03 17.35416 11 31 08.15 +04 36 17.6 19.8   704 – Lincoln Laboratory ETS, New Mexico MPS 204520
2009 09 12.33453 01 28 51.46 +07 32 29.4   691 – Steward Observatory, Kitt Peak-Spacewatch MPS 294946
2009 09 12.35211 01 28 50.96 +07 32 25.3   691 – Steward Observatory, Kitt Peak-Spacewatch MPS 294946
2009 09 12.36972 01 28 50.38 +07 32 22.1   691 – Steward Observatory, Kitt Peak-Spacewatch MPS 294946
2009 09 16.29889 01 26 48.05 +07 18 02.2 20.8 V 691 – Steward Observatory, Kitt Peak-Spacewatch MPS 294946
2009 09 16.31650 01 26 47.42 +07 17 58.1 20.6 V 691 – Steward Observatory, Kitt Peak-Spacewatch MPS 294946
2009 09 16.33410 01 26 46.81 +07 17 53.8 20.9 V 691 – Steward Observatory, Kitt Peak-Spacewatch MPS 294946
2009 09 20.30466 01 24 24.47 +07 01 41.6 20.6 V 691 – Steward Observatory, Kitt Peak-Spacewatch MPS 295750
2009 09 20.32228 01 24 23.77 +07 01 36.6 20.5 V 691 – Steward Observatory, Kitt Peak-Spacewatch MPS 295750
2009 09 20.33990 01 24 23.06 +07 01 32.4 20.5 V 691 – Steward Observatory, Kitt Peak-Spacewatch MPS 295750
2009 12 13.11697 00 45 54.72 +03 17 15.6 21.3 V G96 – Mt. Lemmon Survey MPS 307229
2009 12 13.12338 00 45 54.79 +03 17 16.9 21.5 V G96 – Mt. Lemmon Survey MPS 307229
2009 12 13.12982 00 45 54.90 +03 17 18.1 20.9 V G96 – Mt. Lemmon Survey MPS 307229
2009 12 13.13621 00 45 55.04 +03 17 18.6 21.4 V G96 – Mt. Lemmon Survey MPS 307229
2009 12 18.14986 00 47 46.12 +03 31 35.2 21.6 V 291 – LPL/Spacewatch II MPS 307229
2009 12 18.17160 00 47 46.62 +03 31 39.3 21.5 V 291 – LPL/Spacewatch II MPS 307229
2009 12 18.18673 00 47 46.98 +03 31 42.3 21.4 V 291 – LPL/Spacewatch II MPS 307229
2010 11 03.45299 07 59 25.69 +19 50 49.7 21.4 V G96 – Mt. Lemmon Survey MPS 355126
2010 11 03.46131 07 59 25.94 +19 50 48.8 21.7 V G96 – Mt. Lemmon Survey MPS 355126
2010 11 03.46979 07 59 26.23 +19 50 48.3 21.2 V G96 – Mt. Lemmon Survey MPS 355126
2010 11 03.47818 07 59 26.52 +19 50 47.4 21.1 V G96 – Mt. Lemmon Survey MPS 355126
2010 11 11.46435 08 02 59.17 +19 40 47.6 21.4 V G96 – Mt. Lemmon Survey MPS 357282
2010 11 11.47010 08 02 59.31 +19 40 47.8 21.7 V G96 – Mt. Lemmon Survey MPS 357282
2010 11 11.47588 08 02 59.42 +19 40 47.1 21.1 V G96 – Mt. Lemmon Survey MPS 357282
2010 11 11.48161 08 02 59.53 +19 40 46.7 21.8 V G96 – Mt. Lemmon Survey MPS 357282
2010 12 14.41004 08 00 30.52 +19 51 26.3 20.7 V G96 – Mt. Lemmon Survey MPS 362542
2010 12 14.41529 08 00 30.34 +19 51 26.7 20.6 V G96 – Mt. Lemmon Survey MPS 362542
2010 12 14.42056 08 00 30.20 +19 51 27.4 20.8 V G96 – Mt. Lemmon Survey MPS 362542
2010 12 14.42589 08 00 29.98 +19 51 28.1 20.8 V G96 – Mt. Lemmon Survey MPS 362542
2011 01 14.32375 07 35 35.44 +21 05 09.2 20.2 V G96 – Mt. Lemmon Survey MPS 366719
2011 01 14.33186 07 35 34.94 +21 05 10.4 19.9 V G96 – Mt. Lemmon Survey MPS 366719
2011 01 14.34003 07 35 34.47 +21 05 11.8 20.1 V G96 – Mt. Lemmon Survey MPS 366719
2011 01 14.34814 07 35 33.97 +21 05 12.8 20.1 V G96 – Mt. Lemmon Survey MPS 366720
2012 03 15.38103 14 22 13.01 -12 19 47.6 21.1 V 691 – Steward Observatory, Kitt Peak-Spacewatch MPS 417060
2012 03 15.39880 14 22 12.70 -12 19 45.5 20.6 V 691 – Steward Observatory, Kitt Peak-Spacewatch MPS 417060
